Regional Weather Roundup
Issued by NWS

Home | Current Version | Previous Version | Graphics & Text | Print | Product List | Glossary On
Versions: 1 2 3 4 5 6 7 8 9 10 11 12 13 14 15 16 17 18 19 20 21 22 23 24 25 26 27 28
000
ASUS45 KCYS 200910
RWRWY

WYOMING REGIONAL WEATHER ROUNDUP
NATIONAL WEATHER SERVICE CHEYENNE WY
300 AM MDT SUN APR 20 2014

NOTE:  "FAIR" INDICATES FEW OR NO CLOUDS BELOW 12,000 FEET
WITH NO SIGNIFICANT WEATHER AND/OR OBSTRUCTIONS TO VISIBILITY.

WYZ001-201000-
YELLOWSTONE NATIONAL PARK

CITY           SKY/WX    TMP DP  RH WIND       PRES   REMARKS
LK YELLOWSTONE   N/A     24  20  84 CALM      30.10S
W YELLOWSTONE  NOT AVBL

$$
WYZ002>013-054>058-071-098>099-201000-
NORTHERN WYOMING

CITY           SKY/WX    TMP DP  RH WIND       PRES   REMARKS
JACKSON        PTCLDY    36  28  75 CALM      30.07R
CODY           MOCLDY    48  25  40 S7        29.93F
GREYBULL       PTCLDY    44  29  55 SE3       29.92S
WORLAND        CLEAR     37  29  72 SW3       29.93S
SHERIDAN         N/A     45  34  65 SW13        N/A
BUFFALO        CLEAR     45  23  42 CALM      29.94S
GILLETTE       CLEAR     42  32  67 S10       29.92F
HULETT         FAIR      48  32  53 SW5       29.94
NEWCASTLE      FAIR      50  32  50 E12       29.95

$$
WYZ014>020-022>026-101>103-201000-
CENTRAL WYOMING

CITY           SKY/WX    TMP DP  RH WIND       PRES   REMARKS
BIG PINEY      CLEAR     27  19  72 E7        30.12R WCI  19
PINEDALE       SUNNY     28  27  93 W6        30.13S WCI  22
DUBOIS         FAIR      34  23  64 W12       30.06F WCI  25
LANDER         CLEAR     45  25  45 CALM      29.99F
RIVERTON       CLEAR     41  19  41 W6        30.01S
CASPER         CLEAR     42  29  59 SW12      29.98F
DOUGLAS        CLEAR     44  36  73 SE5       29.99R

$$
WYZ021-027>030-104>119-201000-
SOUTHERN WYOMING

CITY           SKY/WX    TMP DP  RH WIND       PRES   REMARKS
EVANSTON       CLEAR     43  29  57 SW6       30.12F
KEMMERER       SUNNY     36  28  75 NW8       30.12F WCI  29
FORT BRIDGER   FAIR      45  28  52 W10       30.14S
ROCK SPRINGS   CLEAR     43  28  55 SW9       30.11S
DIXON          FAIR      34  31  92 CALM      30.15F
RAWLINS        CLEAR     41  33  73 S5        30.09F
SARATOGA       FAIR      37  32  81 CALM      30.13S
LARAMIE        CLEAR     35  31  85 S8        30.10F WCI  29
CHEYENNE       PTCLDY    44  37  76 W9        30.05F
TORRINGTON     CLEAR     44  38  79 E9        29.98F
PINE BLUFFS    FAIR      43  37  81 CALM      30.05R

$$



USA.gov is the U.S. government's official web portal to all federal, state and local government web resources and services.